Location: Coopersdale
(40.3556°N, 78.9372°W)
Time: 09:05:20
(UTC+00:00)

Envisat - Pass Details

Date: 29 November 2020
Orbit: 764 x 766 km, 98.1° (Epoch: 15 January)

Event Time Altitude Azimuth Distance (km) Brightness Sun altitude
Rises 22:48:05 0° 182° (S) 3,217 6.5 -10.9°
Reaches altitude 10° 22:50:28 10° 189° (S) 2,295 5.8 -11.3°
Maximum altitude 22:55:18 45° 261° (W) 1,038 4.3 -12.2°
Drops below altitude 10° 23:00:11 10° 334° (NNW) 2,311 5.6 -13.1°
Sets 23:02:36 0° 341° (NNW) 3,242 6.3 -13.5°
